Volver al catálogo

STARLINK-34123

ActivoComunicacionesVLEO
NORAD 63891·PAYLOAD·🇺🇸 United States

Lanzado May 10, 2025 desde Cape Canaveral Space Force Station

Loading…

Próximos Pases (próximas 24 horas)

TLE

ActualizadoSource: CelesTrak SupGP

Época: Sep 14, 2026, 21:02 UTC

1 63891C 25095B   26257.87687500  .00004209  00000+0  15246-3 0  2573
2 63891  43.0015 188.1475 0001221 260.9186 236.3068 15.27576402    12

Sigue STARLINK-34123 en tiempo real con AllMySat

Download on the App Store